Weather History for CWHL - December, 2013

Change the Weather History Date:

Wednesday, December 18, 2013

  Actual Average Record
Temperature  
Mean Temperature 34 °F -  
Max Temperature 37 °F - - ()
Min Temperature 31 °F - - ()
Degree Days  
Heating Degree Days 31    
Moisture  
Dew Point 28 °F    
Average Humidity 74    
Maximum Humidity 90    
Minimum Humidity 56    
Precipitation  
Precipitation 0.00 in - - ()
Sea Level Pressure  
Sea Level Pressure 30.28 in    
Wind  
Wind Speed 8 mph ()    
Max Wind Speed 13 mph    
Max Gust Speed -    
T = Trace of Precipitation, MM = Missing Value Source: Averaged Metar Reports

Daily Weather History Graph

Daily Weather History Graph

Search for Another Location

Airport or City:

Trip Planner

Search our weather history database for the weather conditions in past years. The results will help you decide how hot, cold, wet, or windy it might be!

Date:

Astronomy

Dec. 18, 2013 Rise Set
Actual Time 8:57 AM PST 4:18 PM PST
Civil Twilight 8:13 AM PST 5:02 PM PST
Nautical Twilight 7:27 AM PST 5:49 PM PST
Astronomical Twilight 6:43 AM PST 6:32 PM PST
Moon 6:11 PM PST (12/18) 9:28 AM PST (12/18)
Length of Visible Light 8h 49m
Length of Day
7h 20m
Full, 98% of the Moon is Illuminated
Dec 18
Full
Dec 25
Last Quarter
Jan 1
New
Jan 7
First Quarter
Jan 15
Full

Hourly Weather History & Observations

Time (PST) Temp. Windchill Dew Point Humidity Pressure Visibility Wind Dir Wind Speed Gust Speed Precip Events Conditions
12:00 AM 36.9 °F 32.2 °F 31.6 °F 81% 30.10 in - ENE 5.8 mph - N/A   Unknown
1:00 AM 37.4 °F 33.8 °F 32.0 °F 81% 30.12 in - NE 4.6 mph - N/A   Unknown
2:00 AM 36.5 °F 31.0 °F 32.0 °F 84% 30.13 in - ENE 6.9 mph - N/A   Unknown
3:00 AM 36.1 °F 27.7 °F 31.8 °F 84% 30.15 in - North 12.7 mph - N/A   Unknown
4:00 AM 35 °F - 31 °F 78% 30.17 in - North 10.4 mph - -  
4:00 AM 34.9 °F 27.1 °F 30.6 °F 84% 30.17 in - North 10.4 mph - N/A   Unknown
5:00 AM 35.1 °F 29.3 °F 28.6 °F 77% 30.18 in - NE 6.9 mph - N/A   Unknown
6:00 AM 35.8 °F 30.1 °F 26.8 °F 70% 30.20 in - NNE 6.9 mph - N/A   Unknown
7:00 AM 35.4 °F 29.7 °F 27.9 °F 74% 30.22 in - NNE 6.9 mph - N/A   Unknown
8:00 AM 35.4 °F 27.8 °F 26.2 °F 69% 30.24 in - North 10.4 mph - N/A   Unknown
9:00 AM 35.2 °F 26.6 °F 26.2 °F 70% 30.25 in - North 12.7 mph - N/A   Unknown
10:00 AM 35 °F - 25 °F 56% 30.29 in - North 11.5 mph - -  
10:00 AM 35.1 °F 26.9 °F 25.2 °F 67% 30.29 in - North 11.5 mph - N/A   Unknown
11:00 AM 35.1 °F 27.4 °F 24.1 °F 64% 30.31 in - North 10.4 mph - N/A   Unknown
12:00 PM 35.1 °F 27.9 °F 25.7 °F 69% 30.33 in - NNW 9.2 mph - N/A   Unknown
1:00 PM 35.1 °F 27.4 °F 25.7 °F 69% 30.34 in - North 10.4 mph - N/A   Unknown
2:00 PM 35.4 °F 27.8 °F 24.1 °F 63% 30.36 in - North 10.4 mph - N/A   Unknown
3:00 PM 35.4 °F 27.8 °F 25.0 °F 66% 30.36 in - North 10.4 mph - N/A   Unknown
4:00 PM 35 °F - 26 °F 59% 30.35 in - ENE 5.8 mph - -  
4:00 PM 34.9 °F 29.9 °F 25.9 °F 70% 30.35 in - ENE 5.8 mph - N/A   Unknown
5:00 PM 34.5 °F 31.6 °F 26.8 °F 73% 30.37 in - ENE 3.5 mph - N/A   Unknown
6:00 PM 33.4 °F 26.6 °F 28.4 °F 82% 30.39 in - ENE 8.1 mph - N/A   Unknown
7:00 PM 33.1 °F 27.7 °F 29.5 °F 87% 30.39 in - ENE 5.8 mph - N/A   Unknown
8:00 PM 31.3 °F 23.3 °F 28.6 °F 90% 30.39 in - ENE 9.2 mph - N/A   Unknown
9:00 PM 32.9 °F 24.7 °F 28.0 °F 82% 30.38 in - ENE 10.4 mph - N/A   Unknown
10:00 PM 33 °F - 26 °F 68% 30.38 in - ENE 11.5 mph - -  
10:00 PM 33.1 °F 24.4 °F 26.4 °F 77% 30.38 in - ENE 11.5 mph - N/A   Unknown
11:00 PM 31.8 °F 22.3 °F 25.0 °F 76% 30.38 in - ENE 12.7 mph - N/A   Unknown